Time,TemperatureF,DewpointF,PressureIn,WindDirection,WindDirectionDegrees,WindSpeedMPH,WindSpeedGustMPH,Humidity,HourlyPrecipIn,Conditions,Clouds,dailyrainin,SoftwareType,DateUTC
2013-04-14 00:00:00,64.1,60.2,29.97,NNE,26,0.0,0.0,87,0.00,CLR,,0.00,WeatherDisplay:10.37,2013-04-14 04:00:00,
2013-04-14 00:10:00,64.0,60.1,29.96,NNE,26,0.0,0.0,87,0.00,CLR,,0.00,WeatherDisplay:10.37,2013-04-14 04:10:00,
2013-04-14 00:15:00,64.0,60.4,29.96,NNE,26,0.0,0.0,88,0.00,CLR,,0.00,WeatherDisplay:10.37,2013-04-14 04:15:00,
2013-04-14 00:20:00,64.1,60.5,29.97,NNE,26,0.0,0.0,88,0.00,CLR,,0.00,WeatherDisplay:10.37,2013-04-14 04:20:00,
2013-04-14 00:25:00,64.2,60.6,29.96,NNE,26,0.0,0.0,88,0.00,CLR,,0.00,WeatherDisplay:10.37,2013-04-14 04:25:00,
2013-04-14 00:30:00,64.1,60.5,29.96,NNE,26,0.0,0.0,88,0.00,CLR,,0.00,WeatherDisplay:10.37,2013-04-14 04:30:00,
2013-04-14 00:35:00,64.0,60.4,29.96,NNE,26,0.0,0.0,88,0.00,CLR,,0.00,WeatherDisplay:10.37,2013-04-14 04:35:00,
2013-04-14 00:40:00,63.9,60.2,29.97,NNE,26,0.0,0.0,88,0.00,CLR,,0.00,WeatherDisplay:10.37,2013-04-14 04:40:00,
2013-04-14 00:45:00,63.7,60.1,29.97,NNE,26,0.0,0.0,88,0.00,CLR,,0.00,WeatherDisplay:10.37,2013-04-14 04:45:00,
2013-04-14 00:50:00,63.6,60.3,29.97,NNE,26,0.0,0.0,89,0.00,CLR,,0.00,WeatherDisplay:10.37,2013-04-14 04:50:00,
2013-04-14 00:55:00,63.4,60.1,29.97,NNE,26,0.0,0.0,89,0.00,CLR,,0.00,WeatherDisplay:10.37,2013-04-14 04:55:00,
2013-04-14 01:00:00,63.4,60.4,29.96,NNE,26,0.0,1.0,90,0.00,CLR,,0.00,WeatherDisplay:10.37,2013-04-14 05:00:00,
2013-04-14 01:05:00,63.3,60.3,29.96,NNE,26,0.0,1.0,90,0.00,CLR,,0.00,WeatherDisplay:10.37,2013-04-14 05:05:00,
2013-04-14 01:10:00,63.3,60.3,29.96,NNE,26,0.0,1.0,90,0.00,CLR,,0.00,WeatherDisplay:10.37,2013-04-14 05:10:00,
2013-04-14 01:15:00,63.5,60.8,29.96,NNE,26,0.0,0.0,91,0.00,CLR,,0.00,WeatherDisplay:10.37,2013-04-14 05:15:00,
2013-04-14 01:20:00,63.7,61.0,29.96,NNE,26,0.0,1.0,91,0.00,CLR,,0.00,WeatherDisplay:10.37,2013-04-14 05:20:00,
2013-04-14 01:25:00,63.9,61.2,29.96,NNE,26,0.0,0.0,91,0.00,CLR,,0.00,WeatherDisplay:10.37,2013-04-14 05:25:00,
2013-04-14 01:30:00,64.1,61.4,29.96,NNE,26,0.0,0.0,91,0.00,CLR,,0.00,WeatherDisplay:10.37,2013-04-14 05:30:00,
2013-04-14 01:35:00,64.1,61.4,29.96,NNE,26,0.0,0.0,91,0.00,CLR,,0.00,WeatherDisplay:10.37,2013-04-14 05:35:00,
2013-04-14 01:40:00,64.2,61.5,29.96,NNE,26,0.0,0.0,91,0.00,CLR,,0.00,WeatherDisplay:10.37,2013-04-14 05:40:00,
2013-04-14 01:45:00,64.3,61.6,29.96,NNE,26,0.0,0.0,91,0.00,CLR,,0.00,WeatherDisplay:10.37,2013-04-14 05:45:00,
2013-04-14 01:50:00,64.4,61.7,29.95,NNE,26,0.0,2.0,91,0.00,CLR,,0.00,WeatherDisplay:10.37,2013-04-14 05:50:00,
2013-04-14 01:55:00,64.4,61.7,29.95,NNE,26,0.0,2.0,91,0.00,CLR,,0.00,WeatherDisplay:10.37,2013-04-14 05:55:00,
2013-04-14 02:00:00,64.5,61.8,29.95,NNE,30,0.0,1.0,91,0.00,CLR,,0.00,WeatherDisplay:10.37,2013-04-14 06:00:00,
2013-04-14 02:05:00,64.8,62.1,29.95,NE,34,0.0,1.0,91,0.00,CLR,,0.00,WeatherDisplay:10.37,2013-04-14 06:05:00,
2013-04-14 02:10:00,64.9,61.9,29.94,NE,34,0.0,0.0,90,0.00,CLR,,0.00,WeatherDisplay:10.37,2013-04-14 06:10:00,
2013-04-14 02:15:00,65.1,62.1,29.94,NE,34,0.0,1.0,90,0.00,CLR,,0.00,WeatherDisplay:10.37,2013-04-14 06:15:00,
2013-04-14 02:20:00,65.1,62.1,29.94,NE,37,0.0,3.0,90,0.00,CLR,,0.00,WeatherDisplay:10.37,2013-04-14 06:20:00,
2013-04-14 02:25:00,65.3,62.3,29.94,NE,45,0.0,2.0,90,0.00,CLR,,0.00,WeatherDisplay:10.37,2013-04-14 06:25:00,
2013-04-14 02:30:00,65.4,62.4,29.94,NE,47,0.0,2.0,90,0.00,CLR,,0.00,WeatherDisplay:10.37,2013-04-14 06:30:00,
2013-04-14 02:40:00,65.4,62.4,29.94,NE,47,0.0,2.0,90,0.00,CLR,,0.00,WeatherDisplay:10.37,2013-04-14 06:40:00,
2013-04-14 02:50:00,65.6,62.6,29.94,NE,47,0.0,0.0,90,0.00,CLR,,0.00,WeatherDisplay:10.37,2013-04-14 06:50:00,
2013-04-14 02:55:00,65.6,62.3,29.94,NE,47,0.0,1.0,89,0.00,CLR,,0.00,WeatherDisplay:10.37,2013-04-14 06:55:00,
2013-04-14 03:00:00,65.7,62.4,29.94,NE,47,0.0,2.0,89,0.00,CLR,,0.00,WeatherDisplay:10.37,2013-04-14 07:00:00,
2013-04-14 03:10:00,66.0,62.7,29.94,NE,47,0.0,0.0,89,0.00,CLR,,0.00,WeatherDisplay:10.37,2013-04-14 07:10:00,
2013-04-14 03:15:00,66.2,62.9,29.94,NE,47,0.0,0.0,89,0.00,CLR,,0.00,WeatherDisplay:10.37,2013-04-14 07:15:00,
2013-04-14 03:20:00,66.3,63.0,29.94,NE,47,0.0,0.0,89,0.00,CLR,,0.00,WeatherDisplay:10.37,2013-04-14 07:20:00,
2013-04-14 03:25:00,66.5,63.1,29.94,NE,47,0.0,1.0,89,0.00,CLR,,0.00,WeatherDisplay:10.37,2013-04-14 07:25:00,
2013-04-14 03:30:00,66.6,63.0,29.94,NE,47,0.0,2.0,88,0.00,CLR,,0.00,WeatherDisplay:10.37,2013-04-14 07:30:00,
2013-04-14 03:35:00,66.7,63.1,29.94,NE,47,0.0,0.0,88,0.00,CLR,,0.00,WeatherDisplay:10.37,2013-04-14 07:35:00,
2013-04-14 03:40:00,67.0,63.3,29.93,NE,47,0.0,1.0,88,0.00,CLR,,0.00,WeatherDisplay:10.37,2013-04-14 07:40:00,
2013-04-14 03:45:00,67.1,63.1,29.93,NE,47,0.0,0.0,87,0.00,CLR,,0.00,WeatherDisplay:10.37,2013-04-14 07:45:00,
2013-04-14 03:50:00,67.2,63.2,29.92,NE,47,0.0,0.0,87,0.00,CLR,,0.00,WeatherDisplay:10.37,2013-04-14 07:50:00,
2013-04-14 03:55:00,67.3,63.3,29.92,NE,47,0.0,1.0,87,0.00,CLR,,0.00,WeatherDisplay:10.37,2013-04-14 07:55:00,
2013-04-14 04:00:00,67.2,62.9,29.92,NE,47,0.0,0.0,86,0.00,CLR,,0.00,WeatherDisplay:10.37,2013-04-14 08:00:00,
2013-04-14 04:05:00,67.2,62.9,29.92,NE,47,0.0,1.0,86,0.00,CLR,,0.00,WeatherDisplay:10.37,2013-04-14 08:05:00,
2013-04-14 04:10:00,67.2,62.9,29.92,NE,47,0.0,0.0,86,0.00,CLR,,0.00,WeatherDisplay:10.37,2013-04-14 08:10:00,
2013-04-14 04:20:00,67.2,63.2,29.92,NE,47,0.0,1.0,87,0.00,CLR,,0.00,WeatherDisplay:10.37,2013-04-14 08:20:00,
2013-04-14 04:25:00,67.2,63.2,29.92,NE,47,0.0,2.0,87,0.00,CLR,,0.00,WeatherDisplay:10.37,2013-04-14 08:25:00,
2013-04-14 04:30:00,67.4,63.1,29.92,NE,47,0.0,1.0,86,0.00,CLR,,0.00,WeatherDisplay:10.37,2013-04-14 08:30:00,
2013-04-14 04:35:00,67.5,63.1,29.92,NE,47,0.0,0.0,86,0.00,CLR,,0.00,WeatherDisplay:10.37,2013-04-14 08:35:00,
2013-04-14 04:40:00,67.5,63.2,29.92,NE,47,0.0,0.0,86,0.00,CLR,,0.00,WeatherDisplay:10.37,2013-04-14 08:40:00,
2013-04-14 04:45:00,67.5,63.2,29.92,NE,47,0.0,0.0,86,0.00,CLR,,0.00,WeatherDisplay:10.37,2013-04-14 08:45:00,
2013-04-14 04:50:00,67.6,63.3,29.92,NE,47,0.0,0.0,86,0.00,CLR,,0.00,WeatherDisplay:10.37,2013-04-14 08:50:00,
2013-04-14 04:55:00,67.6,63.3,29.92,NE,47,0.0,1.0,86,0.00,CLR,,0.00,WeatherDisplay:10.37,2013-04-14 08:55:00,
2013-04-14 05:00:00,67.6,63.3,29.92,NE,47,0.0,2.0,86,0.00,CLR,,0.00,WeatherDisplay:10.37,2013-04-14 09:00:00,
2013-04-14 05:05:00,67.7,63.3,29.91,NE,47,0.0,1.0,86,0.00,CLR,,0.00,WeatherDisplay:10.37,2013-04-14 09:05:00,
2013-04-14 05:10:00,67.7,63.4,29.91,NE,47,0.0,0.0,86,0.00,CLR,,0.00,WeatherDisplay:10.37,2013-04-14 09:10:00,
2013-04-14 05:15:00,67.8,63.5,29.91,NE,47,0.0,2.0,86,0.00,CLR,,0.00,WeatherDisplay:10.37,2013-04-14 09:15:00,
2013-04-14 05:20:00,68.0,63.6,29.91,NE,47,0.0,0.0,86,0.00,CLR,,0.00,WeatherDisplay:10.37,2013-04-14 09:20:00,
2013-04-14 05:30:00,68.1,63.4,29.90,NE,47,0.0,1.0,85,0.00,CLR,,0.00,WeatherDisplay:10.37,2013-04-14 09:30:00,
2013-04-14 05:35:00,68.1,63.4,29.91,NE,47,0.0,2.0,85,0.00,CLR,,0.00,WeatherDisplay:10.37,2013-04-14 09:35:00,
2013-04-14 05:40:00,68.2,63.5,29.90,NE,47,0.0,3.0,85,0.00,CLR,,0.00,WeatherDisplay:10.37,2013-04-14 09:40:00,
2013-04-14 05:45:00,68.3,63.6,29.91,NE,48,0.0,4.0,85,0.00,CLR,,0.00,WeatherDisplay:10.37,2013-04-14 09:45:00,
2013-04-14 05:50:00,68.4,63.7,29.91,NE,56,0.0,4.0,85,0.00,CLR,,0.00,WeatherDisplay:10.37,2013-04-14 09:50:00,
2013-04-14 05:55:00,68.4,63.8,29.91,ENE,61,0.0,1.0,85,0.00,CLR,,0.00,WeatherDisplay:10.37,2013-04-14 09:55:00,
2013-04-14 06:00:00,68.5,64.1,29.91,ENE,61,0.0,1.0,86,0.00,CLR,,0.00,WeatherDisplay:10.37,2013-04-14 10:00:00,
2013-04-14 06:05:00,68.6,64.2,29.91,ENE,61,0.0,3.0,86,0.00,CLR,,0.00,WeatherDisplay:10.37,2013-04-14 10:05:00,
2013-04-14 06:10:00,68.8,64.4,29.91,ENE,62,0.0,3.0,86,0.00,CLR,,0.00,WeatherDisplay:10.37,2013-04-14 10:10:00,
2013-04-14 06:15:00,68.8,64.4,29.91,ENE,63,0.0,4.0,86,0.00,CLR,,0.00,WeatherDisplay:10.37,2013-04-14 10:15:00,
2013-04-14 06:20:00,69.0,64.6,29.91,ENE,63,0.0,2.0,86,0.00,CLR,,0.00,WeatherDisplay:10.37,2013-04-14 10:20:00,
2013-04-14 06:25:00,69.0,64.3,29.91,ENE,63,0.0,4.0,85,0.00,CLR,,0.00,WeatherDisplay:10.37,2013-04-14 10:25:00,
2013-04-14 06:30:00,69.0,64.3,29.91,ENE,62,0.0,3.0,85,0.00,CLR,,0.00,WeatherDisplay:10.37,2013-04-14 10:30:00,
2013-04-14 06:35:00,69.0,64.3,29.91,ENE,63,0.0,3.0,85,0.00,CLR,,0.00,WeatherDisplay:10.37,2013-04-14 10:35:00,
2013-04-14 06:45:00,69.0,64.3,29.91,ENE,70,0.0,5.0,85,0.00,CLR,,0.00,WeatherDisplay:10.37,2013-04-14 10:45:00,
2013-04-14 06:55:00,68.9,64.5,29.91,ENE,73,0.0,2.0,86,0.00,CLR,,0.00,WeatherDisplay:10.37,2013-04-14 10:55:00,
2013-04-14 07:00:00,68.9,64.5,29.91,ENE,72,0.0,1.0,86,0.00,CLR,,0.00,WeatherDisplay:10.37,2013-04-14 11:00:00,
2013-04-14 07:05:00,68.9,64.2,29.92,ENE,63,0.0,2.0,85,0.00,CLR,,0.00,WeatherDisplay:10.37,2013-04-14 11:05:00,
2013-04-14 07:15:00,69.0,64.3,29.91,ENE,59,1.0,3.0,85,0.00,CLR,,0.00,WeatherDisplay:10.37,2013-04-14 11:15:00,
2013-04-14 07:20:00,69.0,64.3,29.92,ENE,59,0.0,1.0,85,0.00,CLR,,0.00,WeatherDisplay:10.37,2013-04-14 11:20:00,
2013-04-14 07:25:00,69.0,64.3,29.92,ENE,59,0.0,0.0,85,0.00,CLR,,0.00,WeatherDisplay:10.37,2013-04-14 11:25:00,
2013-04-14 07:30:00,69.1,64.4,29.92,ENE,59,0.0,1.0,85,0.00,CLR,,0.00,WeatherDisplay:10.37,2013-04-14 11:30:00,
2013-04-14 07:35:00,69.1,64.4,29.93,SE,125,0.0,0.0,85,0.00,CLR,,0.00,WeatherDisplay:10.37,2013-04-14 11:35:00,
2013-04-14 07:40:00,69.2,64.5,29.93,SSW,202,0.0,0.0,85,0.00,CLR,,0.00,WeatherDisplay:10.37,2013-04-14 11:40:00,
2013-04-14 07:45:00,69.3,64.9,29.93,SW,225,0.0,0.0,86,0.00,CLR,,0.00,WeatherDisplay:10.37,2013-04-14 11:45:00,
2013-04-14 07:55:00,69.4,65.0,29.92,NW,325,0.0,1.0,86,0.00,CLR,,0.00,WeatherDisplay:10.37,2013-04-14 11:55:00,
2013-04-14 08:00:00,69.6,65.2,29.92,East,80,0.0,0.0,86,0.00,CLR,,0.00,WeatherDisplay:10.37,2013-04-14 12:00:00,
2013-04-14 08:10:00,70.0,65.2,29.93,SE,124,0.0,3.0,85,0.00,CLR,,0.00,WeatherDisplay:10.37,2013-04-14 12:10:00,
2013-04-14 08:15:00,70.2,65.5,29.93,ESE,102,0.0,1.0,85,0.00,CLR,,0.00,WeatherDisplay:10.37,2013-04-14 12:15:00,
2013-04-14 08:20:00,70.4,65.7,29.93,ESE,102,0.0,1.0,85,0.00,CLR,,0.00,WeatherDisplay:10.37,2013-04-14 12:20:00,
2013-04-14 08:25:00,70.6,65.8,29.93,ESE,102,0.0,3.0,85,0.00,CLR,,0.00,WeatherDisplay:10.37,2013-04-14 12:25:00,
2013-04-14 08:30:00,70.7,65.6,29.94,ESE,105,0.0,2.0,84,0.00,CLR,,0.00,WeatherDisplay:10.37,2013-04-14 12:30:00,
2013-04-14 08:35:00,70.8,65.7,29.94,East,101,0.0,2.0,84,0.00,CLR,,0.00,WeatherDisplay:10.37,2013-04-14 12:35:00,
2013-04-14 08:40:00,71.0,65.9,29.94,ESE,104,0.0,1.0,84,0.00,CLR,,0.00,WeatherDisplay:10.37,2013-04-14 12:40:00,
2013-04-14 08:50:00,71.3,66.2,29.93,West,263,0.0,3.0,84,0.00,CLR,,0.00,WeatherDisplay:10.37,2013-04-14 12:50:00,
2013-04-14 08:55:00,71.5,66.8,29.92,East,81,2.0,5.0,85,0.00,CLR,,0.00,WeatherDisplay:10.37,2013-04-14 12:55:00,
2013-04-14 09:05:00,72.0,66.9,29.93,East,88,1.0,4.0,84,0.00,CLR,,0.00,WeatherDisplay:10.37,2013-04-14 13:05:00,
2013-04-14 09:10:00,72.1,67.0,29.93,East,87,0.0,1.0,84,0.00,CLR,,0.00,WeatherDisplay:10.37,2013-04-14 13:10:00,
2013-04-14 09:20:00,72.3,67.2,29.94,East,87,0.0,3.0,84,0.00,CLR,,0.00,WeatherDisplay:10.37,2013-04-14 13:20:00,
2013-04-14 09:25:00,72.5,67.4,29.94,East,83,0.0,2.0,84,0.00,CLR,,0.00,WeatherDisplay:10.37,2013-04-14 13:25:00,
2013-04-14 09:30:00,72.9,68.1,29.94,East,87,1.0,3.0,85,0.00,CLR,,0.00,WeatherDisplay:10.37,2013-04-14 13:30:00,
2013-04-14 09:35:00,73.5,68.3,29.94,East,87,1.0,5.0,84,0.00,CLR,,0.00,WeatherDisplay:10.37,2013-04-14 13:35:00,
2013-04-14 09:40:00,74.2,69.0,29.94,ENE,78,0.0,3.0,84,0.00,CLR,,0.00,WeatherDisplay:10.37,2013-04-14 13:40:00,
2013-04-14 09:45:00,74.8,69.3,29.94,East,83,1.0,4.0,83,0.00,CLR,,0.00,WeatherDisplay:10.37,2013-04-14 13:45:00,
2013-04-14 09:50:00,75.5,69.6,29.93,East,86,3.0,7.0,82,0.00,CLR,,0.00,WeatherDisplay:10.37,2013-04-14 13:50:00,
2013-04-14 09:55:00,75.8,69.6,29.93,East,85,2.0,6.0,81,0.00,CLR,,0.00,WeatherDisplay:10.37,2013-04-14 13:55:00,
2013-04-14 10:00:00,75.9,69.6,29.93,ESE,105,1.0,7.0,81,0.00,CLR,,0.00,WeatherDisplay:10.37,2013-04-14 14:00:00,
2013-04-14 10:05:00,75.8,69.6,29.94,East,99,0.0,8.0,81,0.00,CLR,,0.00,WeatherDisplay:10.37,2013-04-14 14:05:00,
2013-04-14 10:10:00,75.8,69.6,29.95,ESE,103,2.0,5.0,81,0.00,CLR,,0.00,WeatherDisplay:10.37,2013-04-14 14:10:00,
2013-04-14 10:15:00,76.1,69.8,29.94,East,86,2.0,7.0,81,0.00,CLR,,0.00,WeatherDisplay:10.37,2013-04-14 14:15:00,
2013-04-14 10:20:00,76.6,70.3,29.95,East,80,0.0,5.0,81,0.00,CLR,,0.00,WeatherDisplay:10.37,2013-04-14 14:20:00,
2013-04-14 10:30:00,77.4,70.8,29.95,ENE,74,0.0,3.0,80,0.00,CLR,,0.00,WeatherDisplay:10.37,2013-04-14 14:30:00,
2013-04-14 10:35:00,78.0,71.3,29.94,East,99,1.0,7.0,80,0.00,CLR,,0.00,WeatherDisplay:10.37,2013-04-14 14:35:00,
2013-04-14 10:40:00,78.5,71.8,29.95,ESE,112,0.0,7.0,80,0.00,CLR,,0.00,WeatherDisplay:10.37,2013-04-14 14:40:00,
2013-04-14 10:45:00,79.2,71.7,29.95,ESE,119,2.0,8.0,78,0.00,CLR,,0.00,WeatherDisplay:10.37,2013-04-14 14:45:00,
2013-04-14 10:50:00,79.4,71.9,29.95,ESE,106,0.0,4.0,78,0.00,CLR,,0.00,WeatherDisplay:10.37,2013-04-14 14:50:00,
2013-04-14 10:55:00,79.2,71.4,29.95,SE,130,2.0,7.0,77,0.00,CLR,,0.00,WeatherDisplay:10.37,2013-04-14 14:55:00,
2013-04-14 11:05:00,79.4,72.3,29.94,ESE,110,0.0,4.0,79,0.00,CLR,,0.00,WeatherDisplay:10.37,2013-04-14 15:05:00,
2013-04-14 11:10:00,79.9,72.4,29.94,East,99,1.0,5.0,78,0.00,CLR,,0.00,WeatherDisplay:10.37,2013-04-14 15:10:00,
2013-04-14 11:15:00,80.2,72.3,29.95,SE,131,0.0,6.0,77,0.00,CLR,,0.00,WeatherDisplay:10.37,2013-04-14 15:15:00,
2013-04-14 11:25:00,81.3,73.8,29.95,ESE,106,0.0,3.0,78,0.00,CLR,,0.00,WeatherDisplay:10.37,2013-04-14 15:25:00,
2013-04-14 11:30:00,81.8,73.5,29.95,East,83,2.0,7.0,76,0.00,CLR,,0.00,WeatherDisplay:10.37,2013-04-14 15:30:00,
2013-04-14 11:35:00,81.8,73.1,29.94,East,94,0.0,5.0,75,0.00,CLR,,0.00,WeatherDisplay:10.37,2013-04-14 15:35:00,
2013-04-14 11:45:00,82.4,73.7,29.94,ESE,119,0.0,4.0,75,0.00,CLR,,0.00,WeatherDisplay:10.37,2013-04-14 15:45:00,
2013-04-14 11:55:00,82.4,73.3,29.94,SE,130,1.0,8.0,74,0.00,CLR,,0.00,WeatherDisplay:10.37,2013-04-14 15:55:00,
2013-04-14 12:00:00,82.2,73.5,29.94,SSE,148,0.0,3.0,75,0.00,CLR,,0.00,WeatherDisplay:10.37,2013-04-14 16:00:00,
2013-04-14 12:10:00,82.1,73.0,29.93,SE,144,1.0,6.0,74,0.00,CLR,,0.00,WeatherDisplay:10.37,2013-04-14 16:10:00,
2013-04-14 12:15:00,82.3,73.6,29.93,SE,135,0.0,6.0,75,0.00,CLR,,0.00,WeatherDisplay:10.37,2013-04-14 16:15:00,
2013-04-14 12:20:00,82.7,73.5,29.93,SSE,164,1.0,6.0,74,0.00,CLR,,0.00,WeatherDisplay:10.37,2013-04-14 16:20:00,
2013-04-14 12:25:00,82.9,73.8,29.93,SSE,147,0.0,6.0,74,0.00,CLR,,0.00,WeatherDisplay:10.37,2013-04-14 16:25:00,
2013-04-14 12:30:00,83.0,73.9,29.93,East,92,0.0,8.0,74,0.00,CLR,,0.00,WeatherDisplay:10.37,2013-04-14 16:30:00,
2013-04-14 12:40:00,83.2,74.0,29.93,East,90,1.0,4.0,74,0.00,CLR,,0.00,WeatherDisplay:10.37,2013-04-14 16:40:00,
2013-04-14 12:45:00,83.3,73.7,29.93,South,178,2.0,5.0,73,0.00,CLR,,0.00,WeatherDisplay:10.37,2013-04-14 16:45:00,
2013-04-14 12:55:00,83.4,73.8,29.92,SSE,164,1.0,3.0,73,0.00,CLR,,0.00,WeatherDisplay:10.37,2013-04-14 16:55:00,
2013-04-14 13:00:00,83.8,74.6,29.92,ENE,62,0.0,3.0,74,0.00,CLR,,0.00,WeatherDisplay:10.37,2013-04-14 17:00:00,
2013-04-14 13:05:00,84.0,73.6,29.92,SSE,168,3.0,7.0,71,0.00,CLR,,0.00,WeatherDisplay:10.37,2013-04-14 17:05:00,
2013-04-14 13:15:00,85.0,74.2,29.91,SE,142,2.0,6.0,70,0.00,CLR,,0.00,WeatherDisplay:10.37,2013-04-14 17:15:00,
2013-04-14 13:20:00,85.2,74.3,29.90,SSE,158,1.0,5.0,70,0.00,CLR,,0.00,WeatherDisplay:10.37,2013-04-14 17:20:00,
2013-04-14 13:25:00,85.2,74.3,29.90,SE,141,1.0,4.0,70,0.00,CLR,,0.00,WeatherDisplay:10.37,2013-04-14 17:25:00,
2013-04-14 13:35:00,85.0,74.9,29.88,East,98,1.0,9.0,72,0.00,CLR,,0.00,WeatherDisplay:10.37,2013-04-14 17:35:00,
2013-04-14 14:05:00,84.8,75.2,29.87,NW,309,0.0,4.0,73,0.00,CLR,,0.00,WeatherDisplay:10.37,2013-04-14 18:05:00,
2013-04-14 14:15:00,84.8,75.6,29.88,SE,143,0.0,2.0,74,0.00,CLR,,0.00,WeatherDisplay:10.37,2013-04-14 18:15:00,
2013-04-14 14:25:00,85.5,75.9,29.87,SE,131,1.0,4.0,73,0.00,CLR,,0.00,WeatherDisplay:10.37,2013-04-14 18:25:00,
2013-04-14 14:35:00,86.3,74.9,29.87,SSE,159,0.0,7.0,69,0.00,CLR,,0.00,WeatherDisplay:10.37,2013-04-14 18:35:00,
2013-04-14 14:40:00,86.3,75.8,29.87,ESE,109,2.0,7.0,71,0.00,CLR,,0.00,WeatherDisplay:10.37,2013-04-14 18:40:00,
2013-04-14 14:45:00,86.3,76.2,29.87,East,84,1.0,7.0,72,0.00,CLR,,0.00,WeatherDisplay:10.37,2013-04-14 18:45:00,
2013-04-14 14:50:00,86.6,75.7,29.86,East,84,0.0,5.0,70,0.00,CLR,,0.00,WeatherDisplay:10.37,2013-04-14 18:50:00,
2013-04-14 15:00:00,86.8,75.8,29.86,ENE,68,2.0,5.0,70,0.00,CLR,,0.00,WeatherDisplay:10.37,2013-04-14 19:00:00,
2013-04-14 15:05:00,86.1,75.6,29.85,ENE,68,1.0,7.0,71,0.00,CLR,,0.00,WeatherDisplay:10.37,2013-04-14 19:05:00,
2013-04-14 15:10:00,85.9,75.8,29.85,ENE,70,0.0,3.0,72,0.00,CLR,,0.00,WeatherDisplay:10.37,2013-04-14 19:10:00,
2013-04-14 15:15:00,86.1,76.8,29.84,ENE,75,2.0,7.0,74,0.00,CLR,,0.00,WeatherDisplay:10.37,2013-04-14 19:15:00,
2013-04-14 15:25:00,86.7,76.6,29.84,NE,52,1.0,7.0,72,0.00,CLR,,0.00,WeatherDisplay:10.37,2013-04-14 19:25:00,
2013-04-14 15:30:00,86.6,76.0,29.84,NE,52,1.0,4.0,71,0.00,CLR,,0.00,WeatherDisplay:10.37,2013-04-14 19:30:00,
2013-04-14 15:40:00,84.8,73.0,29.84,East,87,2.0,8.0,68,0.00,CLR,,0.00,WeatherDisplay:10.37,2013-04-14 19:40:00,
2013-04-14 15:50:00,82.5,72.1,29.84,East,88,3.0,8.0,71,0.00,CLR,,0.00,WeatherDisplay:10.37,2013-04-14 19:50:00,
2013-04-14 16:00:00,81.9,70.7,29.83,East,98,1.0,6.0,69,0.00,CLR,,0.00,WeatherDisplay:10.37,2013-04-14 20:00:00,
2013-04-14 16:05:00,81.9,71.1,29.83,ESE,102,0.0,4.0,70,0.00,CLR,,0.00,WeatherDisplay:10.37,2013-04-14 20:05:00,
2013-04-14 16:15:00,83.2,72.9,29.83,East,81,1.0,6.0,71,0.00,CLR,,0.00,WeatherDisplay:10.37,2013-04-14 20:15:00,
2013-04-14 16:20:00,83.5,72.7,29.83,East,79,1.0,7.0,70,0.00,CLR,,0.00,WeatherDisplay:10.37,2013-04-14 20:20:00,
2013-04-14 16:25:00,83.8,72.6,29.83,East,86,2.0,8.0,69,0.00,CLR,,0.00,WeatherDisplay:10.37,2013-04-14 20:25:00,
2013-04-14 16:30:00,83.7,72.0,29.83,ESE,111,1.0,7.0,68,0.00,CLR,,0.00,WeatherDisplay:10.37,2013-04-14 20:30:00,
2013-04-14 16:40:00,83.6,72.8,29.82,East,81,2.0,7.0,70,0.00,CLR,,0.00,WeatherDisplay:10.37,2013-04-14 20:40:00,
2013-04-14 16:45:00,83.7,72.4,29.82,East,96,2.0,6.0,69,0.00,CLR,,0.00,WeatherDisplay:10.37,2013-04-14 20:45:00,
2013-04-14 16:55:00,83.4,72.6,29.82,ESE,111,2.0,7.0,70,0.00,CLR,,0.00,WeatherDisplay:10.37,2013-04-14 20:55:00,
2013-04-14 17:00:00,83.0,72.7,29.82,SE,141,2.0,6.0,71,0.00,CLR,,0.00,WeatherDisplay:10.37,2013-04-14 21:00:00,
2013-04-14 17:05:00,82.5,72.5,29.82,SSE,153,1.0,9.0,72,0.00,CLR,,0.00,WeatherDisplay:10.37,2013-04-14 21:05:00,
2013-04-14 17:10:00,81.9,72.8,29.82,SSE,147,0.0,9.0,74,0.00,CLR,,0.00,WeatherDisplay:10.37,2013-04-14 21:10:00,
2013-04-14 17:15:00,81.7,73.0,29.82,ESE,114,1.0,8.0,75,0.00,CLR,,0.00,WeatherDisplay:10.37,2013-04-14 21:15:00,
2013-04-14 17:20:00,81.5,73.2,29.82,ESE,118,2.0,7.0,76,0.00,CLR,,0.00,WeatherDisplay:10.37,2013-04-14 21:20:00,
2013-04-14 17:25:00,81.4,73.5,29.82,SE,135,1.0,8.0,77,0.00,CLR,,0.00,WeatherDisplay:10.37,2013-04-14 21:25:00,
2013-04-14 17:30:00,81.3,73.4,29.81,ESE,113,1.0,6.0,77,0.00,CLR,,0.00,WeatherDisplay:10.37,2013-04-14 21:30:00,
2013-04-14 17:35:00,67.3,66.1,29.94,NW,305,2.0,6.0,96,0.00,RA,,2.08,WeatherDisplay:10.37,2013-04-14 21:35:00,
2013-04-14 17:40:00,81.2,74.4,29.81,ESE,116,0.0,4.0,80,0.00,CLR,,0.00,WeatherDisplay:10.37,2013-04-14 21:40:00,
2013-04-14 17:45:00,81.1,74.7,29.80,ESE,111,0.0,1.0,81,0.00,CLR,,0.00,WeatherDisplay:10.37,2013-04-14 21:45:00,
2013-04-14 17:50:00,80.7,74.7,29.80,SE,137,2.0,8.0,82,0.00,CLR,,0.00,WeatherDisplay:10.37,2013-04-14 21:50:00,
2013-04-14 17:55:00,80.2,74.2,29.80,SSE,150,6.0,12.0,82,0.00,CLR,,0.00,WeatherDisplay:10.37,2013-04-14 21:55:00,
2013-04-14 18:00:00,79.8,74.2,29.81,SSE,156,1.0,7.0,83,0.01,RA,,0.01,WeatherDisplay:10.37,2013-04-14 22:00:00,
2013-04-14 18:05:00,79.2,73.2,29.80,SE,145,1.0,8.0,82,0.00,RA,,0.01,WeatherDisplay:10.37,2013-04-14 22:05:00,
2013-04-14 18:10:00,66.8,65.3,29.94,WNW,301,3.0,6.0,95,0.00,CLR,,2.08,WeatherDisplay:10.37,2013-04-14 22:10:00,
2013-04-14 18:15:00,78.4,72.4,29.80,SE,139,0.0,4.0,82,0.01,RA,,0.02,WeatherDisplay:10.37,2013-04-14 22:15:00,
2013-04-14 18:20:00,78.1,72.6,29.80,South,173,0.0,2.0,83,0.00,RA,,0.02,WeatherDisplay:10.37,2013-04-14 22:20:00,
2013-04-14 18:25:00,77.8,72.6,29.79,SSE,157,0.0,3.0,84,0.02,RA,,0.04,WeatherDisplay:10.37,2013-04-14 22:25:00,
2013-04-14 18:30:00,77.1,72.9,29.81,East,96,0.0,2.0,87,0.02,RA,,0.06,WeatherDisplay:10.37,2013-04-14 22:30:00,
2013-04-14 18:35:00,76.3,72.8,29.82,NNE,13,1.0,7.0,89,0.00,RA,,0.06,WeatherDisplay:10.37,2013-04-14 22:35:00,
2013-04-14 18:40:00,76.0,73.1,29.81,NW,321,5.0,12.0,91,0.04,RA,,0.10,WeatherDisplay:10.37,2013-04-14 22:40:00,
2013-04-14 18:45:00,75.0,72.2,29.85,NW,326,3.0,13.0,91,0.11,RA,,0.21,WeatherDisplay:10.37,2013-04-14 22:45:00,
2013-04-14 18:55:00,71.5,68.7,29.84,NW,317,2.0,13.0,91,0.14,RA,,0.70,WeatherDisplay:10.37,2013-04-14 22:55:00,
2013-04-14 19:00:00,71.2,69.1,29.83,NNW,330,1.0,12.0,93,0.16,RA,,0.86,WeatherDisplay:10.37,2013-04-14 23:00:00,
2013-04-14 19:05:00,70.8,68.7,29.84,NNW,342,1.0,5.0,93,0.07,RA,,0.93,WeatherDisplay:10.37,2013-04-14 23:05:00,
2013-04-14 19:10:00,70.6,68.8,29.84,NNW,344,1.0,3.0,94,0.09,RA,,1.02,WeatherDisplay:10.37,2013-04-14 23:10:00,
2013-04-14 19:15:00,70.7,68.8,29.84,North,355,0.0,3.0,94,0.01,RA,,1.03,WeatherDisplay:10.37,2013-04-14 23:15:00,
2013-04-14 19:20:00,70.8,68.9,29.83,NNE,28,0.0,1.0,94,0.00,RA,,1.03,WeatherDisplay:10.37,2013-04-14 23:20:00,
2013-04-14 19:25:00,70.8,69.3,29.83,NNE,30,0.0,1.0,95,0.00,CLR,,1.03,WeatherDisplay:10.37,2013-04-14 23:25:00,
2013-04-14 19:30:00,70.9,69.4,29.84,NNE,30,0.0,1.0,95,0.00,CLR,,1.03,WeatherDisplay:10.37,2013-04-14 23:30:00,
2013-04-14 19:35:00,71.1,69.6,29.84,NNE,27,0.0,2.0,95,0.01,RA,,1.04,WeatherDisplay:10.37,2013-04-14 23:35:00,
2013-04-14 19:40:00,71.2,69.7,29.86,North,352,0.0,2.0,95,0.04,RA,,1.08,WeatherDisplay:10.37,2013-04-14 23:40:00,
2013-04-14 19:45:00,71.2,69.7,29.86,North,351,0.0,1.0,95,0.13,RA,,1.21,WeatherDisplay:10.37,2013-04-14 23:45:00,
2013-04-14 19:50:00,71.2,69.7,29.85,North,351,0.0,1.0,95,0.19,RA,,1.40,WeatherDisplay:10.37,2013-04-14 23:50:00,
2013-04-14 19:55:00,71.3,70.1,29.86,NNW,341,0.0,3.0,96,0.16,RA,,1.56,WeatherDisplay:10.37,2013-04-14 23:55:00,
2013-04-14 20:00:00,71.4,70.2,29.85,NNW,338,0.0,1.0,96,0.07,RA,,1.63,WeatherDisplay:10.37,2013-04-15 00:00:00,
2013-04-14 20:05:00,71.5,70.3,29.84,NNE,19,1.0,4.0,96,0.13,RA,,1.76,WeatherDisplay:10.37,2013-04-15 00:05:00,
2013-04-14 20:10:00,71.6,70.4,29.85,East,91,0.0,2.0,96,0.06,RA,,1.82,WeatherDisplay:10.37,2013-04-15 00:10:00,
2013-04-14 20:15:00,71.6,70.4,29.85,East,82,0.0,1.0,96,0.00,RA,,1.82,WeatherDisplay:10.37,2013-04-15 00:15:00,
2013-04-14 20:25:00,71.6,70.4,29.85,ENE,57,0.0,1.0,96,0.00,CLR,,1.82,WeatherDisplay:10.37,2013-04-15 00:25:00,
2013-04-14 20:30:00,71.7,70.5,29.86,ENE,57,0.0,3.0,96,0.00,CLR,,1.82,WeatherDisplay:10.37,2013-04-15 00:30:00,
2013-04-14 20:35:00,71.8,70.6,29.87,East,85,0.0,5.0,96,0.00,CLR,,1.82,WeatherDisplay:10.37,2013-04-15 00:35:00,
2013-04-14 20:50:00,71.6,70.4,29.88,SSE,166,1.0,6.0,96,0.00,CLR,,1.82,WeatherDisplay:10.37,2013-04-15 00:50:00,
2013-04-14 21:00:00,71.3,70.1,29.88,South,189,0.0,3.0,96,0.02,RA,,1.84,WeatherDisplay:10.37,2013-04-15 01:00:00,
2013-04-14 21:05:00,71.2,70.0,29.88,South,189,0.0,1.0,96,0.01,RA,,1.86,WeatherDisplay:10.37,2013-04-15 01:05:00,
2013-04-14 21:10:00,71.0,69.8,29.88,South,189,0.0,1.0,96,0.06,RA,,1.91,WeatherDisplay:10.37,2013-04-15 01:10:00,
2013-04-14 21:15:00,70.9,69.7,29.88,South,189,0.0,1.0,96,0.00,RA,,1.91,WeatherDisplay:10.37,2013-04-15 01:15:00,
2013-04-14 21:20:00,70.8,69.6,29.89,South,189,0.0,0.0,96,0.00,,,1.91,WeatherDisplay:10.37,2013-04-15 01:20:00,
2013-04-14 21:25:00,70.7,69.5,29.89,South,189,0.0,0.0,96,0.00,CLR,,1.91,WeatherDisplay:10.37,2013-04-15 01:25:00,
2013-04-14 21:30:00,70.6,69.4,29.90,South,189,0.0,0.0,96,0.00,CLR,,1.91,WeatherDisplay:10.37,2013-04-15 01:30:00,
2013-04-14 21:35:00,70.6,69.4,29.90,South,189,0.0,1.0,96,0.00,CLR,,1.91,WeatherDisplay:10.37,2013-04-15 01:35:00,
2013-04-14 21:40:00,70.6,69.4,29.91,South,189,0.0,1.0,96,0.00,CLR,,1.91,WeatherDisplay:10.37,2013-04-15 01:40:00,
2013-04-14 21:45:00,70.6,69.4,29.90,South,189,0.0,2.0,96,0.00,CLR,,1.91,WeatherDisplay:10.37,2013-04-15 01:45:00,
2013-04-14 21:50:00,70.6,69.4,29.90,South,189,0.0,0.0,96,0.00,CLR,,1.91,WeatherDisplay:10.37,2013-04-15 01:50:00,
2013-04-14 21:55:00,70.6,69.4,29.91,South,189,0.0,1.0,96,0.00,CLR,,1.91,WeatherDisplay:10.37,2013-04-15 01:55:00,
2013-04-14 22:00:00,70.8,69.6,29.92,South,190,1.0,2.0,96,0.00,CLR,,1.91,WeatherDisplay:10.37,2013-04-15 02:00:00,
2013-04-14 22:05:00,70.3,69.1,29.95,WNW,291,16.0,30.0,96,0.09,RA,,2.00,WeatherDisplay:10.37,2013-04-15 02:05:00,
2013-04-14 22:10:00,68.1,66.3,29.94,WNW,303,5.0,16.0,94,0.06,RA,,2.06,WeatherDisplay:10.37,2013-04-15 02:10:00,
2013-04-14 22:15:00,67.6,66.1,29.95,NW,306,3.0,10.0,95,0.01,RA,,2.07,WeatherDisplay:10.37,2013-04-15 02:15:00,
2013-04-14 22:25:00,67.4,65.9,29.95,NW,307,2.0,6.0,95,0.01,RA,,2.08,WeatherDisplay:10.37,2013-04-15 02:25:00,
2013-04-14 23:35:00,66.3,65.1,29.93,WNW,296,2.0,6.0,96,0.00,CLR,,2.08,WeatherDisplay:10.37,2013-04-15 03:35:00,
2013-04-14 23:40:00,66.2,64.8,29.93,NW,305,2.0,6.0,95,0.00,CLR,,2.08,WeatherDisplay:10.37,2013-04-15 03:40:00,
2013-04-14 23:45:00,66.2,64.7,29.93,NW,304,2.0,7.0,95,0.00,CLR,,2.08,WeatherDisplay:10.37,2013-04-15 03:45:00,
2013-04-14 23:50:00,66.1,64.6,29.93,WNW,300,1.0,5.0,95,0.00,CLR,,2.08,WeatherDisplay:10.37,2013-04-15 03:50:00,